EW2817 Weather Reports


time (UTC)temp
F
wind
direction
speed
knots
gust
knots
rain 1hr
in
rain 24hr
in
rain mn
in
humidity
%
barometer
mb
20260901023345 80 0 0.0 0.0 0.00 0.00 0.00 80 995.3
20260901021845 80 0 0.0 0.0 0.00 0.00 0.00 81 995.2
20260901020344 80 0 0.0 0.0 0.00 0.00 0.00 81 995.3
20260901014845 80 0 0.0 0.0 0.00 0.00 0.00 81 995.3
20260901013345 80 0 0.0 0.0 0.00 0.00 0.00 80 995.2
20260901011845 80 0 0.0 0.0 0.00 0.00 0.00 81 995.0
20260901010343 80 0 0.0 0.0 0.00 0.00 0.00 82 994.9
20260901004843 80 0 0.0 0.0 0.00 0.00 0.00 83 994.7
20260901003342 81 0 0.0 0.0 0.00 0.00 0.00 82 994.7
20260901001840 81 0 0.0 0.0 0.00 0.00 0.00 81 994.5
20260901000340 82 0 0.0 0.0 0.00 0.00 0.00 83 994.4
20260831234840 82 0 0.0 0.0 0.00 0.00 0.00 83 994.5
20260831233339 83 0 0.0 0.0 0.00 0.00 0.00 83 994.5
20260831232529 84 0 0.0 0.0 0.00 0.00 0.00 82 994.5
20260831230337 84 0 0.0 0.0 0.00 0.00 0.00 80 994.4
20260831224836 85 0 0.0 0.0 0.00 0.00 0.00 78 994.5
20260831224031 86 0 0.0 0.0 0.00 0.00 0.00 76 994.5
20260831221832 86 0 0.0 0.0 0.00 0.00 0.00 75 994.5
20260831221022 87 0 0.0 0.0 0.00 0.00 0.00 73 994.5
20260831214828 87 0 0.0 0.0 0.00 0.00 0.00 71 994.6
20260831213328 88 0 0.0 0.0 0.00 0.00 0.00 70 994.7
20260831211824 88 0 0.0 0.0 0.00 0.00 0.00 71 994.8
20260831211027 88 0 0.0 0.0 0.00 0.00 0.00 68 994.8
20260831204824 90 0 0.0 0.0 0.00 0.00 0.00 65 995.0
20260831203322 89 0 0.0 0.0 0.00 0.00 0.00 62 995.1
20260831201822 90 0 0.0 0.0 0.00 0.00 0.00 63 995.1
20260831200322 91 0 0.0 0.0 0.00 0.00 0.00 62 995.2
20260831194821 92 0 0.0 0.0 0.00 0.00 0.00 56 995.2
20260831193321 92 0 0.0 0.0 0.00 0.00 0.00 58 995.2
20260831191816 93 0 0.0 0.0 0.00 0.00 0.00 56 995.4
20260831190314 94 0 0.0 0.0 0.00 0.00 0.00 55 995.6
20260831184814 95 0 0.0 0.0 0.00 0.00 0.00 55 995.8
20260831183314 95 0 0.0 0.0 0.00 0.00 0.00 53 995.9
20260831181813 95 0 0.0 0.0 0.00 0.00 0.00 58 996.0
20260831180316 94 0 0.0 0.0 0.00 0.00 0.00 56 996.2
20260831174813 95 0 0.0 0.0 0.00 0.00 0.00 54 996.2
20260831173313 95 0 0.0 0.0 0.00 0.00 0.00 59 996.3
20260831171812 94 0 0.0 0.0 0.00 0.00 0.00 61 996.4
20260831170309 92 0 0.0 0.0 0.00 0.00 0.00 63 996.5
20260831164807 91 0 0.0 0.0 0.00 0.00 0.00 67 996.7
20260831163305 91 0 0.0 0.0 0.00 0.00 0.00 64 996.6
20260831161803 90 0 0.0 0.0 0.00 0.00 0.00 67 996.9
20260831160313 89 0 0.0 0.0 0.00 0.00 0.00 70 996.9
20260831154803 87 0 0.0 0.0 0.00 0.00 0.00 72 997.1
20260831154013 87 0 0.0 0.0 0.00 0.00 0.00 73 997.0
20260831152441 86 0 0.0 0.0 0.00 0.00 0.00 75 997.1
20260831150207 85 0 0.0 0.0 0.00 0.00 0.00 78 997.2
20260831145111 84 0 0.0 0.0 0.00 0.00 0.00 80 997.2